Pinedale, WY

10:33 AM MDT on August 31, 2016 (GMT -0600)
Wenz

Weather History for KPNA - August, 2012

Change the Weather History Date:

Tuesday, August 7, 2012

  Actual Average (KBPI) Record (KBPI)
Temperature  
Mean Temperature 63 °F 62 °F  
Max Temperature 84 °F 81 °F 94 °F (2001)
Min Temperature 42 °F 43 °F 30 °F (1976)
Degree Days  
Heating Degree Days 2 4  
Month to date heating degree days 24  
Since 1 June heating degree days 446  
Since 1 July heating degree days 141  
Cooling Degree Days 0 1  
Month to date cooling degree days 7  
Year to date cooling degree days 31  
Since 1 June cooling degree days 31  
Growing Degree Days 13 (Base 50)    
Moisture  
Dew Point 34 °F    
Average Humidity 42    
Maximum Humidity 76    
Minimum Humidity 13    
Precipitation  
Precipitation 0.00 in 0.02 in 0.74 in (2003)
Month to date precipitation 0.16  
Year to date precipitation 4.13  
Sea Level Pressure  
Sea Level Pressure 30.43 in    
Wind  
Wind Speed 6 mph (NW)    
Max Wind Speed 21 mph    
Max Gust Speed 28 mph    
Visibility 10 miles    
Events      
T = Trace of Precipitation, MM = Missing Value Source: NWS Daily Summary

Daily Weather History Graph

Daily Weather History Graph

Search for Another Location

Airport or City:

Trip Planner

Search our weather history database for the weather conditions in past years. The results will help you decide how hot, cold, wet, or windy it might be!

Date:

Astronomy

Aug. 07, 2012 Rise Set
Actual Time 6:17 AM MDT 8:31 PM MDT
Civil Twilight 5:46 AM MDT 9:02 PM MDT
Nautical Twilight 5:07 AM MDT 9:41 PM MDT
Astronomical Twilight 4:24 AM MDT 10:23 PM MDT
Moon 11:02 PM MDT (8/7) 12:19 PM MDT (8/7)
Length of Visible Light 15h 16m
Length of Day
14h 14m
Waning Gibbous, 69% of the Moon is Illuminated
Aug 7
Waning Gibbous
Aug 9
Last Quarter
Aug 17
New
Aug 24
First Quarter
Aug 31
Full

Hourly Weather History & Observations

Time (MDT) Temp. Windchill Dew Point Humidity Pressure Visibility Wind Dir Wind Speed Gust Speed Precip Events Conditions
12:15 AM 51.8 °F - 33.8 °F 50% 30.43 in 10.0 mi North 4.6 mph - N/A   Clear
12:35 AM 50.0 °F - 33.8 °F 54% 30.43 in 10.0 mi Calm Calm - N/A   Clear
12:55 AM 50.0 °F - 33.8 °F 54% 30.43 in 10.0 mi Calm Calm - N/A   Clear
1:15 AM 50.0 °F - 35.6 °F 58% 30.43 in 10.0 mi WNW 4.6 mph - N/A   Clear
1:35 AM 46.4 °F - 33.8 °F 62% 30.43 in 10.0 mi Calm Calm - N/A   Clear
1:55 AM 48.2 °F - 37.4 °F 66% 30.43 in 10.0 mi NW 5.8 mph - N/A   Clear
2:15 AM 48.2 °F - 37.4 °F 66% 30.43 in 10.0 mi WNW 3.5 mph - N/A   Clear
2:55 AM 46.4 °F 43.5 °F 37.4 °F 71% 30.42 in 10.0 mi NW 5.8 mph - N/A   Clear
3:15 AM 51.8 °F - 37.4 °F 58% 30.42 in 10.0 mi West 6.9 mph - N/A   Clear
3:35 AM 44.6 °F 40.7 °F 37.4 °F 76% 30.43 in 10.0 mi WNW 6.9 mph - N/A   Clear
3:55 AM 46.4 °F 45.2 °F 37.4 °F 71% 30.43 in 10.0 mi WNW 3.5 mph - N/A   Clear
4:15 AM 44.6 °F 40.7 °F 37.4 °F 76% 30.42 in 10.0 mi WNW 6.9 mph - N/A   Clear
4:35 AM 44.6 °F 42.2 °F 37.4 °F 76% 30.43 in 10.0 mi WNW 4.6 mph - N/A   Clear
4:55 AM 44.6 °F - 37.4 °F 76% 30.43 in 10.0 mi Calm Calm - N/A   Clear
5:15 AM 46.4 °F - 37.4 °F 71% 30.43 in 10.0 mi Calm Calm - N/A   Clear
5:35 AM 46.4 °F 45.2 °F 37.4 °F 71% 30.43 in 10.0 mi NW 3.5 mph - N/A   Clear
5:55 AM 44.6 °F 43.1 °F 37.4 °F 76% 30.44 in 10.0 mi NW 3.5 mph - N/A   Clear
6:15 AM 44.6 °F - 37.4 °F 76% 30.44 in 10.0 mi Calm Calm - N/A   Clear
6:35 AM 42.8 °F 38.6 °F 35.6 °F 76% 30.45 in 10.0 mi WNW 6.9 mph - N/A   Clear
6:55 AM 44.6 °F 40.7 °F 37.4 °F 76% 30.45 in 10.0 mi WNW 6.9 mph - N/A   Clear
7:15 AM 44.6 °F 42.2 °F 37.4 °F 76% 30.46 in 10.0 mi West 4.6 mph - N/A   Clear
7:35 AM 48.2 °F - 37.4 °F 66% 30.46 in 10.0 mi WNW 3.5 mph - N/A   Clear
7:55 AM 50.0 °F - 39.2 °F 66% 30.46 in 10.0 mi Calm Calm - N/A   Clear
8:15 AM 53.6 °F - 41.0 °F 62% 30.47 in 10.0 mi NW 6.9 mph - N/A   Clear
8:35 AM 55.4 °F - 39.2 °F 54% 30.47 in 10.0 mi NW 9.2 mph - N/A   Clear
8:55 AM 60.8 °F - 39.2 °F 45% 30.47 in 10.0 mi NW 11.5 mph - N/A   Clear
9:15 AM 60.8 °F - 41.0 °F 48% 30.47 in 10.0 mi NW 11.5 mph - N/A   Clear
10:15 AM 69.8 °F - 37.4 °F 31% 30.47 in 10.0 mi Calm Calm - N/A   Clear
10:35 AM 71.6 °F - 35.6 °F 27% 30.47 in 10.0 mi Calm Calm - N/A   Clear
10:55 AM 73.4 °F - 33.8 °F 23% 30.47 in 10.0 mi NW 6.9 mph - N/A   Clear
11:15 AM 75.2 °F - 33.8 °F 22% 30.46 in 10.0 mi NNE 4.6 mph - N/A   Clear
11:35 AM 77.0 °F - 30.2 °F 18% 30.46 in 10.0 mi NW 6.9 mph - N/A   Clear
11:55 AM 77.0 °F - 30.2 °F 18% 30.46 in 10.0 mi NNW 8.1 mph - N/A   Clear
12:15 PM 78.8 °F - 32.0 °F 18% 30.46 in 10.0 mi NW 9.2 mph - N/A   Clear
12:35 PM 78.8 °F - 30.2 °F 17% 30.45 in 10.0 mi WNW 11.5 mph 20.7 mph N/A   Clear
12:55 PM 80.6 °F - 30.2 °F 16% 30.44 in 10.0 mi NW 10.4 mph 18.4 mph N/A   Clear
1:15 PM 78.8 °F - 28.4 °F 16% 30.43 in 10.0 mi NNW 12.7 mph 17.3 mph N/A   Scattered Clouds
1:35 PM 80.6 °F - 28.4 °F 15% 30.43 in 10.0 mi NW 12.7 mph 24.2 mph N/A   Clear
1:55 PM 82.4 °F - 28.4 °F 14% 30.43 in 10.0 mi NW 17.3 mph 25.3 mph N/A   Clear
2:15 PM 82.4 °F - 28.4 °F 14% 30.42 in 10.0 mi NW 9.2 mph 23.0 mph N/A   Clear
2:35 PM 80.6 °F - 28.4 °F 15% 30.42 in 10.0 mi NNW 12.7 mph 23.0 mph N/A   Clear
2:55 PM 80.6 °F - 28.4 °F 15% 30.41 in 10.0 mi NNW 20.7 mph 27.6 mph N/A   Clear
3:15 PM 82.4 °F - 30.2 °F 15% 30.41 in 10.0 mi WNW 12.7 mph 19.6 mph N/A   Scattered Clouds
3:35 PM 82.4 °F - 30.2 °F 15% 30.40 in 10.0 mi NNW 12.7 mph 20.7 mph N/A   Scattered Clouds
3:55 PM 84.2 °F - 30.2 °F 14% 30.40 in 10.0 mi NW 18.4 mph - N/A   Scattered Clouds
4:15 PM 82.4 °F - 28.4 °F 14% 30.39 in 10.0 mi NNW 12.7 mph - N/A   Scattered Clouds
4:35 PM 82.4 °F - 28.4 °F 14% 30.39 in 10.0 mi NNW 12.7 mph 19.6 mph N/A   Clear
5:15 PM 82.4 °F - 26.6 °F 13% 30.38 in 10.0 mi WNW 19.6 mph 24.2 mph N/A   Clear
5:35 PM 82.4 °F - 28.4 °F 14% 30.38 in 10.0 mi NW 10.4 mph - N/A   Clear
5:55 PM 82.4 °F - 30.2 °F 15% 30.38 in 10.0 mi NW 17.3 mph 20.7 mph N/A   Clear
6:15 PM 82.4 °F - 30.2 °F 15% 30.38 in 10.0 mi NNW 17.3 mph 20.7 mph N/A   Clear
6:35 PM 80.6 °F - 30.2 °F 16% 30.38 in 10.0 mi NW 10.4 mph - N/A   Clear
6:55 PM 80.6 °F - 30.2 °F 16% 30.38 in 10.0 mi NW 12.7 mph - N/A   Clear
7:15 PM 78.8 °F - 32.0 °F 18% 30.39 in 10.0 mi NW 9.2 mph - N/A   Clear
7:35 PM 78.8 °F - 33.8 °F 20% 30.39 in 10.0 mi NW 6.9 mph - N/A   Clear
7:55 PM 73.4 °F - 35.6 °F 25% 30.39 in 10.0 mi NNW 8.1 mph - N/A   Clear
8:15 PM 69.8 °F - 35.6 °F 28% 30.39 in 10.0 mi NW 6.9 mph - N/A   Clear
8:55 PM 62.6 °F - 39.2 °F 42% 30.39 in 10.0 mi WNW 5.8 mph - N/A   Clear
9:15 PM 60.8 °F - 41.0 °F 48% 30.40 in 10.0 mi West 5.8 mph - N/A   Clear
9:35 PM 60.8 °F - 41.0 °F 48% 30.40 in 10.0 mi WNW 3.5 mph - N/A   Clear
9:55 PM 59.0 °F - 37.4 °F 45% 30.41 in 10.0 mi West 5.8 mph - N/A   Clear
10:15 PM 59.0 °F - 37.4 °F 45% 30.42 in 10.0 mi NNW 3.5 mph - N/A   Clear
10:35 PM 57.2 °F - 35.6 °F 44% 30.42 in 10.0 mi WNW 4.6 mph - N/A   Clear
10:55 PM 55.4 °F - 35.6 °F 47% 30.42 in 10.0 mi WNW 5.8 mph - N/A   Clear
11:15 PM 55.4 °F - 35.6 °F 47% 30.41 in 10.0 mi NW 8.1 mph - N/A   Clear
11:35 PM 53.6 °F - 35.6 °F 51% 30.42 in 10.0 mi NW 4.6 mph - N/A   Clear
11:55 PM 50.0 °F - 37.4 °F 62% 30.42 in 10.0 mi NW 4.6 mph - N/A   Clear